Weather History for Sioux City, IA

Change the Weather History Date:

Friday, August 2, 2013

  Actual Average Record
Temperature  
Mean Temperature 67 °F 74 °F  
Max Temperature 72 °F 85 °F 103 °F (1930)
Min Temperature 61 °F 63 °F 50 °F (1907)
Degree Days  
Heating Degree Days 0 0  
Month to date heating degree days 0 0  
Since 1 June heating degree days 55 30  
Since 1 July heating degree days 15 3  
Cooling Degree Days 2 9  
Month to date cooling degree days 8 18  
Year to date cooling degree days 545 563  
Since 1 June cooling degree days 489 499  
Growing Degree Days 16 (Base 50)    
Moisture  
Dew Point 63 °F    
Average Humidity 85    
Maximum Humidity 100    
Minimum Humidity 70    
Precipitation  
Precipitation 0.15 in 0.10 in 1.08 in (1909)
Month to date precipitation 0.29 0.20  
Year to date precipitation 17.35 17.51  
Snow  
Snow 0.00 in 0.00 in 0.00 in ()
Month to date snowfall 0.0 0.0  
Since 1 June snowfall 0.0 0.0  
Since 1 July snowfall 0.0 0.0  
Snow Depth 0.00 in    
Sea Level Pressure  
Sea Level Pressure 29.95 in    
Wind  
Wind Speed 6 mph (ENE)    
Max Wind Speed 21 mph    
Max Gust Speed 28 mph    
Visibility 9 miles    
Events Rain , Thunderstorm    
T = Trace of Precipitation, MM = Missing Value Source: NWS Daily Summary

Daily Weather History Graph

Daily Weather History Graph

Search for Another Location

Airport:

Trip Planner

Search our weather history database for the weather conditions in past years. The results will help you decide how hot, cold, wet, or windy it might be!

Date:

Astronomy

Aug. 02, 2013 Rise Set
Actual Time 6:19 AM CDT 8:43 PM CDT
Civil Twilight 5:47 AM CDT 9:15 PM CDT
Nautical Twilight 5:08 AM CDT 9:54 PM CDT
Astronomical Twilight 4:24 AM CDT 10:37 PM CDT
Moon 2:40 AM CDT (8/2) 5:43 PM CDT (8/2)
Length of Visible Light 15h 27m
Length of Day
14h 24m
Waning Crescent, 15% of the Moon is Illuminated
Aug 2
Waning Crescent
Aug 6
New
Aug 14
First Quarter
Aug 20
Full
Aug 28
Last Quarter

Hourly Weather History & Observations

Time (CDT) Temp. Dew Point Humidity Pressure Visibility Wind Dir Wind Speed Gust Speed Precip Events Conditions
12:52 AM 64.9 °F 63.0 °F 93% 29.91 in 10.0 mi Calm Calm - N/A   Clear
1:52 AM 64.9 °F 63.0 °F 93% 29.90 in 10.0 mi Calm Calm - N/A   Clear
2:52 AM 63.0 °F 62.1 °F 97% 29.91 in 5.0 mi SSE 3.5 mph - N/A   Clear
3:52 AM 64.0 °F 62.1 °F 93% 29.90 in 9.0 mi ESE 4.6 mph - N/A   Mostly Cloudy
4:13 AM 64.4 °F 62.6 °F 94% 29.91 in 9.0 mi Calm Calm - N/A   Overcast
4:43 AM 64.4 °F 62.6 °F 94% 29.91 in 9.0 mi ESE 5.8 mph - N/A   Mostly Cloudy
4:52 AM 63.0 °F 62.1 °F 97% 29.89 in 10.0 mi ESE 5.8 mph - N/A   Scattered Clouds
5:52 AM 62.1 °F 60.1 °F 93% 29.90 in 10.0 mi Calm Calm - N/A   Clear
6:52 AM 63.0 °F 61.0 °F 93% 29.89 in 8.0 mi Calm Calm - N/A   Clear
7:44 AM 66.2 °F 64.4 °F 94% 29.90 in 10.0 mi Calm Calm - N/A   Mostly Cloudy
7:52 AM 68.0 °F 64.9 °F 90% 29.89 in 10.0 mi Calm Calm - N/A   Overcast
8:52 AM 68.0 °F 64.9 °F 90% 29.91 in 10.0 mi SE 5.8 mph - N/A   Mostly Cloudy
9:52 AM 70.0 °F 64.9 °F 84% 29.94 in 10.0 mi Calm Calm - N/A   Overcast
10:25 AM 69.8 °F 64.4 °F 83% 29.96 in 10.0 mi WNW 3.5 mph - N/A Thunderstorm Overcast
10:52 AM 68.0 °F 66.0 °F 93% 29.94 in 7.0 mi NNE 5.8 mph - 0.01 in Rain , Thunderstorm Light Rain
11:09 AM 68.0 °F 66.2 °F 94% 29.94 in 6.0 mi ENE 5.8 mph - 0.00 in Rain Light Rain
11:52 AM 70.0 °F 66.9 °F 90% 29.94 in 10.0 mi East 3.5 mph - 0.01 in   Overcast
12:44 PM 71.6 °F 68.0 °F 88% 29.97 in 10.0 mi NNE 9.2 mph - N/A   Overcast
12:52 PM 72.0 °F 68.0 °F 87% 29.95 in 10.0 mi NNE 10.4 mph - N/A   Overcast
1:24 PM 69.8 °F 66.2 °F 88% 29.99 in 6.0 mi NNE 16.1 mph 24.2 mph 0.00 in Rain , Thunderstorm Light Rain
1:27 PM 68.0 °F 66.2 °F 94% 29.99 in 3.0 mi North 16.1 mph 24.2 mph 0.02 in Rain , Thunderstorm Heavy Thunderstorms and Rain
1:33 PM 68.0 °F 66.2 °F 94% 30.00 in 2.5 mi North 13.8 mph 24.2 mph 0.07 in Rain , Thunderstorm Light Thunderstorms and Rain
1:35 PM 68.0 °F 66.2 °F 94% 30.01 in 3.0 mi North 15.0 mph 20.7 mph 0.07 in Rain , Thunderstorm Light Thunderstorms and Rain
1:49 PM 66.2 °F 64.4 °F 94% 29.96 in 4.0 mi ENE 15.0 mph 20.7 mph 0.10 in Rain Rain
1:52 PM 66.0 °F 64.9 °F 96% 29.95 in 4.0 mi ENE 16.1 mph 21.9 mph 0.11 in Rain Rain
1:59 PM 66.2 °F 64.4 °F 94% 29.96 in 7.0 mi ENE 17.3 mph 24.2 mph 0.01 in Rain Light Rain
2:52 PM 64.9 °F 60.1 °F 84% 29.97 in 10.0 mi East 11.5 mph - 0.01 in   Mostly Cloudy
3:52 PM 66.9 °F 59.0 °F 76% 29.98 in 10.0 mi ENE 10.4 mph - N/A   Mostly Cloudy
4:52 PM 64.9 °F 57.9 °F 78% 29.92 in 10.0 mi East 15.0 mph 25.3 mph 0.00 in Rain Light Rain
5:01 PM 64.4 °F 59.0 °F 83% 29.95 in 10.0 mi ESE 9.2 mph - 0.01 in Rain , Thunderstorm Light Thunderstorms and Rain
5:22 PM 69.8 °F 60.8 °F 73% 29.97 in 10.0 mi Variable 6.9 mph - 0.01 in   Partly Cloudy
5:52 PM 68.0 °F 59.0 °F 73% 29.96 in 10.0 mi East 9.2 mph - 0.01 in   Clear
6:52 PM 70.0 °F 59.0 °F 68% 29.98 in 10.0 mi ENE 10.4 mph - N/A   Clear
7:52 PM 69.1 °F 59.0 °F 70% 29.99 in 10.0 mi ENE 8.1 mph - N/A   Mostly Cloudy
8:52 PM 68.0 °F 60.1 °F 76% 30.01 in 10.0 mi NE 6.9 mph - N/A   Overcast
9:52 PM 66.9 °F 59.0 °F 76% 30.04 in 10.0 mi ENE 5.8 mph - N/A   Overcast
10:52 PM 66.0 °F 59.0 °F 78% 30.05 in 10.0 mi NE 6.9 mph - N/A   Overcast
11:52 PM 66.0 °F 57.9 °F 75% 30.05 in 10.0 mi NE 6.9 mph - N/A   Overcast